Regional Weather Roundup
Issued by NWS

Home | Current Version | Previous Version | Text Only | Print | Product List | Glossary On
Versions: 1 2 3 4 5 6 7 8 9 10 11 12 13 14 15 16 17 18 19 20 21 22 23 24 25 26 27 28 29 30 31 32 33 34 35 36 37 38 39 40 41 42 43 44 45 46 47 48 49 50
000
ASUS42 KFFC 010503
RWRGA
WEATHER ROUNDUP FOR GEORGIA
NATIONAL WEATHER SERVICE PEACHTREE CITY GA
1200 AM EST SUN FEB 01 2015

NOTE: "FAIR" INDICATES FEW OR NO CLOUDS BELOW 12,000 FEET WITH NO
SIGNIFICANT WEATHER AND/OR OBSTRUCTIONS TO VISIBILITY.

* = USE WITH CAUTION. THE STATIONS MARKED WITH AN ASTERISK MAY NOT
REPORT WEATHER SUCH AS PRECIPITATION, FOG, OR THUNDER AND ARE NOT
QUALITY CONTROLLED BY NWS.

THE REMARK "TC" DENOTES TEMPERATURE READING IN DEGREES CELSIUS.

GAZ001>058-010600-
NORTH GEORGIA

CITY           SKY/WX    TMP DP  RH WIND       PRES   REMARKS
ATLANTA        CLOUDY    46  23  40 CALM      30.26F
ATHENS         CLOUDY    41  26  55 CALM      30.28F
CHAMBLEE       CLOUDY    40  26  57 CALM      30.27S
PEACHTREE CITY MOCLDY    37  28  70 CALM      30.27F
ROME           CLOUDY    41  28  60 CALM      30.25S
WEST ATLANTA   CLOUDY    42  27  55 CALM      30.26F
GAINESVILLE    CLOUDY    45  17  32 E3        30.28F
CARTERSVILLE   CLOUDY    40  26  57 CALM      30.26F


CITY           SKY/WX    TMP DP  RH WIND       PRES   REMARKS
DALTON*        CLOUDY    37  28  70 CALM      30.26S
MARIETTA       CLOUDY    41  27  58 CALM      30.25F
$$

GAZ059>098-102>109-010600-
CENTRAL GEORGIA

CITY           SKY/WX    TMP DP  RH WIND       PRES   REMARKS
AUGUSTA-BUSH   CLOUDY    44  23  43 S7        30.31F
AUGUSTA-DANIEL CLOUDY    47  22  37 S6        30.31S
COLUMBUS       MOCLDY    44  25  47 E3        30.26F
MACON          MOCLDY    34  28  79 CALM      30.29S
ROBINS AFB     CLOUDY    38  31  76 CALM      30.26S


CITY           SKY/WX    TMP DP  RH WIND       PRES   REMARKS
LAGRANGE*      MOCLDY    40  34  77 CALM      30.26F
SYLVANIA*      MOCLDY    41  32  70 CALM      30.33F
MILLEDGEVILLE* MOCLDY    41  36  81 CALM      30.29S
$$

GAZ099>101-110>166-010600-
SOUTH GEORGIA

CITY           SKY/WX    TMP DP  RH WIND       PRES   REMARKS
SAVANNAH       MOCLDY    43  32  65 CALM      30.33F
VALDOSTA       PTCLDY    45  37  73 SE5       30.29F
ALMA           CLEAR     40  33  76 E3        30.31F
ST SIMONS      CLEAR     46  40  79 E5        30.32F
FT STEWART     PTCLDY    37  31  80 CALM      30.31F
ALBANY         MOCLDY    42  33  70 E3        30.30R
HUNTER AFB     PTCLDY    40  35  83 SE2       30.31F
MOODY AFB      PTCLDY    44  37  75 E6        30.29F
BRUNSWICK      CLEAR     36  34  93 CALM      30.33F


CITY           SKY/WX    TMP DP  RH WIND       PRES   REMARKS
BAINBRIDGE*    PTCLDY    46  36  66 E5        30.26S
MOULTRIE*      MOCLDY    46  37  71 E3        30.28F
VIDALIA*       MOCLDY    41  32  70 SE3       30.32F
WAYCROSS*      CLEAR     43  38  80 E3        30.31F
DOUGLAS*       CLEAR     43  32  65 E5        30.31F
$$


USA.gov is the U.S. government's official web portal to all federal, state and local government web resources and services.